Location: Brantley
(31.5822°N, 86.2569°W)
Time: 03:55:24
(UTC+00:00)

Vanguard 3 - Pass Details

Date: 25 February 2026
Orbit: 507 x 3205 km, 33.4° (Epoch: 7 March)

Event Time Altitude Azimuth Distance (km) Brightness Sun altitude
Rises 00:45:26 0° 285° (WNW) 4,690 12.6 -14.8°
Reaches altitude 10° 00:49:19 10° 281° (W) 3,257 11.5 -15.6°
Maximum altitude 00:56:30 52° 208° (SSW) 1,031 7.8 -17.2°
Enters shadow 00:59:37 20° 138° (SE) 1,560 8.2 -17.8°
Drops below altitude 10° 01:00:56 10° 131° (SE) 2,029 - -18.1°
Sets 01:02:53 0° 125° (SE) 2,788 - -18.5°
